Tri-Cities, TN

9:34 AM EDT on August 16, 2017 (GMT -0400)
Tri-Cities Regional Tennessee / Virginia

Weather History for KTRI - April, 2013

Change the Weather History Date:

Sunday, April 14, 2013

  Actual Average Record
Temperature  
Mean Temperature 56 °F 55 °F  
Max Temperature 75 °F 68 °F 85 °F (1938)
Min Temperature 37 °F 42 °F 24 °F (1943)
Degree Days  
Heating Degree Days 9 11  
Month to date heating degree days 162 172  
Since 1 July heating degree days 4077 4122  
Cooling Degree Days 0 0  
Month to date cooling degree days 5 0  
Year to date cooling degree days 5 1  
Growing Degree Days 7 (Base 50)    
Moisture  
Dew Point 38 °F    
Average Humidity 56    
Maximum Humidity 86    
Minimum Humidity 25    
Precipitation  
Precipitation 0.07 in 0.11 in 0.58 in (2015)
Month to date precipitation 2.06 1.53  
Year to date precipitation 18.53 11.79  
Snow  
Snow 0.00 in 0.10 in - ()
Month to date snowfall 0.0 0.7  
Since 1 July snowfall 9.2 12.9  
Snow Depth 0.00 in    
Sea Level Pressure  
Sea Level Pressure 29.99 in    
Wind  
Wind Speed 4 mph (SSE)    
Max Wind Speed 18 mph    
Max Gust Speed 22 mph    
Visibility 10 miles    
Events Rain    
T = Trace of Precipitation, MM = Missing Value Source: NWS Daily Summary

Daily Weather History Graph

Daily Weather History Graph

Search for Another Location

Airport or City:

Trip Planner

Search our weather history database for the weather conditions in past years. The results will help you decide how hot, cold, wet, or windy it might be!

Date:

Astronomy

Apr. 14, 2013 Rise Set
Actual Time 6:57 AM EDT 8:03 PM EDT
Civil Twilight 6:30 AM EDT 8:29 PM EDT
Nautical Twilight 5:58 AM EDT 9:01 PM EDT
Astronomical Twilight 5:26 AM EDT 9:34 PM EDT
Moon 9:37 AM EDT (4/14) No Moon Set
Length of Visible Light 13h 59m
Length of Day
13h 06m
Waxing Crescent, 17% of the Moon is Illuminated
Apr 14
Waxing Crescent
Apr 18
First Quarter
Apr 25
Full
May 2
Last Quarter
May 9
New

Hourly Weather History & Observations

Time (EDT) Temp. Windchill Dew Point Humidity Pressure Visibility Wind Dir Wind Speed Gust Speed Precip Events Conditions
12:53 AM 45.0 °F - 37.0 °F 74% 30.03 in 10.0 mi Calm Calm - N/A   Clear
1:53 AM 44.1 °F - 36.0 °F 73% 30.03 in 10.0 mi Calm Calm - N/A   Clear
2:53 AM 41.0 °F - 36.0 °F 82% 30.04 in 10.0 mi Calm Calm - N/A   Clear
3:53 AM 41.0 °F - 35.1 °F 79% 30.03 in 10.0 mi Calm Calm - N/A   Clear
4:53 AM 39.9 °F - 35.1 °F 83% 30.04 in 10.0 mi Calm Calm - N/A   Clear
5:53 AM 39.0 °F - 35.1 °F 86% 30.03 in 10.0 mi Calm Calm - N/A   Clear
6:53 AM 39.0 °F - 35.1 °F 86% 30.04 in 10.0 mi Calm Calm - N/A   Clear
7:53 AM 42.1 °F 39.2 °F 37.0 °F 82% 30.06 in 10.0 mi North 4.6 mph - N/A   Partly Cloudy
8:53 AM 48.9 °F - 39.0 °F 69% 30.05 in 10.0 mi Calm Calm - N/A   Partly Cloudy
9:53 AM 55.0 °F - 39.9 °F 57% 30.05 in 10.0 mi Calm Calm - N/A   Partly Cloudy
10:53 AM 62.1 °F - 41.0 °F 46% 30.02 in 10.0 mi ENE 3.5 mph - N/A   Mostly Cloudy
11:53 AM 70.0 °F - 39.9 °F 33% 30.00 in 10.0 mi Variable 3.5 mph - N/A   Mostly Cloudy
12:53 PM 72.0 °F - 39.9 °F 31% 29.98 in 10.0 mi SE 5.8 mph - N/A   Overcast
1:53 PM 75.0 °F - 37.0 °F 25% 29.95 in 10.0 mi South 9.2 mph 19.6 mph N/A   Overcast
2:53 PM 75.0 °F - 37.0 °F 25% 29.94 in 10.0 mi South 10.4 mph - N/A   Overcast
3:53 PM 73.9 °F - 37.9 °F 27% 29.93 in 10.0 mi SSE 8.1 mph - N/A   Overcast
4:53 PM 72.0 °F - 36.0 °F 27% 29.94 in 10.0 mi SSE 10.4 mph 20.7 mph N/A   Overcast
5:53 PM 69.1 °F - 37.0 °F 31% 29.94 in 10.0 mi SSE 5.8 mph - N/A   Overcast
6:53 PM 68.0 °F - 37.0 °F 32% 29.94 in 10.0 mi SSE 8.1 mph - N/A   Overcast
7:53 PM 66.9 °F - 36.0 °F 32% 29.94 in 10.0 mi South 15.0 mph 21.9 mph 0.00 in Rain Light Rain
8:53 PM 63.0 °F - 37.0 °F 38% 29.93 in 10.0 mi NE 3.5 mph - 0.00 in   Overcast
9:53 PM 61.0 °F - 42.1 °F 50% 29.94 in 10.0 mi SW 6.9 mph - 0.00 in Rain Light Rain
10:53 PM 61.0 °F - 45.0 °F 56% 29.96 in 10.0 mi SW 3.5 mph - 0.00 in Rain Light Rain
11:53 PM 55.0 °F - 51.1 °F 86% 29.96 in 8.0 mi Calm Calm - 0.05 in Rain Light Rain